Location: Catstown
(52.4386°N, 7.2633°W)
Time: 10:48:42
(UTC+00:00)

Cosmos 1833 Rocket - Visible Passes

Search period start: 17 January 2021 00:00
Search period end: 27 January 2021 00:00
Orbit: 834 x 838 km, 71.0° (Epoch: 16 January)

Date Brightness Start Highest point End Pass type
(mag) Time Alt. Az. Time Alt. Az. Time Alt. Az.
17 Jan 4.0 18:37:41 10° NNW 18:41:46 20° NNE 18:42:30 20° NE visible
17 Jan 4.0 20:21:14 10° NNW 20:24:12 31° NNW 20:24:12 31° NNW visible
17 Jan 5.6 22:05:43 10° NW 22:05:55 11° NW 22:05:55 11° NW visible
18 Jan 4.1 18:20:57 10° NNW 18:24:57 19° NNE 18:26:28 18° NE visible
18 Jan 3.5 20:04:30 10° NNW 20:08:11 39° N 20:08:11 39° N visible
18 Jan 5.3 21:48:54 10° NW 21:49:55 15° NW 21:49:55 15° NW visible
19 Jan 4.1 18:04:14 10° NNW 18:08:08 19° NNE 18:10:32 15° ENE visible
19 Jan 3.1 19:47:46 10° NNW 19:52:16 48° NNE 19:52:16 48° NNE visible
19 Jan 5.0 21:32:06 10° NW 21:33:59 19° WNW 21:33:59 19° WNW visible
20 Jan 4.2 17:47:31 10° NNW 17:51:18 18° NNE 17:54:41 11° ENE visible
20 Jan 2.8 19:31:02 10° NNW 19:36:25 53° NE 19:36:25 53° NE visible
20 Jan 4.6 21:15:18 10° NW 21:18:09 25° WNW 21:18:09 25° WNW visible
21 Jan 4.2 17:30:48 10° NNW 17:34:28 17° NNE 17:38:09 10° ENE visible
21 Jan 2.8 19:14:18 10° NNW 19:19:48 50° NE 19:20:41 46° E visible
21 Jan 4.2 20:58:31 10° NW 21:02:25 33° W 21:02:25 33° W visible
22 Jan 2.9 18:57:35 10° NNW 19:03:02 47° NE 19:05:06 33° E visible
22 Jan 3.8 20:41:43 10° NW 20:46:51 39° WSW 20:46:51 39° WSW visible
23 Jan 3.0 18:40:52 10° NNW 18:46:16 44° NE 18:49:44 21° ESE visible
23 Jan 3.7 20:24:57 10° NW 20:30:12 42° WSW 20:31:30 36° SW visible
24 Jan 3.1 18:24:09 10° NNW 18:29:30 42° NE 18:34:40 11° ESE visible
24 Jan 3.6 20:08:11 10° NW 20:13:30 45° WSW 20:16:28 24° S visible
25 Jan 3.1 18:07:25 10° NNW 18:12:43 40° NE 18:17:59 10° ESE visible
25 Jan 3.5 19:51:24 10° NW 19:56:48 48° WSW 20:01:56 11° S visible
26 Jan 3.2 17:50:42 10° NNW 17:55:56 38° NE 18:01:09 10° ESE visible
26 Jan 3.4 19:34:38 10° NW 19:40:05 52° WSW 19:45:29 10° S visible
